2016-12-07 00:09:46 r, 17.83m,0000000006Hz,0000073890c,0000000.160s, 009.0C,00002191
2016-12-07 00:19:46 r, 17.85m,0000000006Hz,0000075410c,0000000.164s, 009.0C,00002191
2016-12-07 00:29:46 r, 17.88m,0000000006Hz,0000077698c,0000000.169s, 009.0C,00002191
2016-12-07 00:39:46 r, 17.82m,0000000006Hz,0000073788c,0000000.160s, 008.7C,00002191
2016-12-07 00:49:46 r, 17.93m,0000000006Hz,0000081552c,0000000.177s, 008.7C,00002191
2016-12-07 00:59:46 r, 18.00m,0000000005Hz,0000086721c,0000000.188s, 008.7C,00002191
2016-12-07 01:09:46 r, 18.14m,0000000004Hz,0000098864c,0000000.215s, 008.7C,00002191
2016-12-07 01:19:46 r, 18.19m,0000000005Hz,0000103689c,0000000.225s, 008.7C,00002191
2016-12-07 01:29:46 r, 17.92m,0000000005Hz,0000081040c,0000000.176s, 008.7C,00002191
2016-12-07 01:39:46 r, 17.69m,0000000008Hz,0000065203c,0000000.141s, 008.7C,00002191
2016-12-07 01:49:46 r, 17.53m,0000000009Hz,0000056464c,0000000.123s, 008.7C,00002191
2016-12-07 01:59:46 r, 17.53m,0000000009Hz,0000056493c,0000000.123s, 008.7C,00002191
2016-12-07 02:09:46 r, 17.50m,0000000008Hz,0000054838c,0000000.119s, 008.7C,00002191
2016-12-07 02:19:46 r, 17.58m,0000000008Hz,0000058898c,0000000.128s, 008.7C,00002191
2016-12-07 02:29:46 r, 17.51m,0000000009Hz,0000055739c,0000000.121s, 008.3C,00002191
2016-12-07 02:39:46 r, 17.40m,0000000009Hz,0000050103c,0000000.109s, 008.7C,00002191
2016-12-07 02:49:46 r, 17.51m,0000000008Hz,0000055344c,0000000.120s, 008.7C,00002191
2016-12-07 02:59:46 r, 17.76m,0000000007Hz,0000069798c,0000000.151s, 008.7C,00002191
2016-12-07 03:09:46 r, 17.81m,0000000006Hz,0000073653c,0000000.160s, 008.7C,00002191
2016-12-07 03:19:46 r, 17.78m,0000000007Hz,0000070843c,0000000.154s, 008.7C,00002191
2016-12-07 03:29:46 r, 17.79m,0000000006Hz,0000071974c,0000000.156s, 008.7C,00002191
2016-12-07 03:39:46 r, 17.87m,0000000006Hz,0000077564c,0000000.168s, 008.3C,00002191
2016-12-07 03:49:46 r, 17.85m,0000000006Hz,0000076047c,0000000.165s, 008.3C,00002191
2016-12-07 03:59:46 r, 17.90m,0000000006Hz,0000079680c,0000000.173s, 008.3C,00002191
2016-12-07 04:09:46 r, 17.87m,0000000006Hz,0000076984c,0000000.167s, 008.3C,00002191
2016-12-07 04:19:46 r, 17.87m,0000000006Hz,0000077546c,0000000.168s, 008.3C,00002191
2016-12-07 04:29:46 r, 17.89m,0000000005Hz,0000079223c,0000000.172s, 008.3C,00002191
2016-12-07 04:39:46 r, 17.86m,0000000006Hz,0000076766c,0000000.167s, 008.3C,00002191
2016-12-07 04:49:46 r, 17.85m,0000000006Hz,0000075910c,0000000.165s, 008.3C,00002191
2016-12-07 04:59:46 r, 17.84m,0000000006Hz,0000074935c,0000000.163s, 008.3C,00002191
2016-12-07 05:09:46 r, 17.89m,0000000006Hz,0000079248c,0000000.172s, 008.3C,00002191
2016-12-07 05:19:46 r, 17.98m,0000000005Hz,0000085414c,0000000.185s, 008.3C,00002191
2016-12-07 05:29:46 r, 18.04m,0000000005Hz,0000090337c,0000000.196s, 008.3C,00002191
2016-12-07 05:39:46 r, 18.04m,0000000005Hz,0000090323c,0000000.196s, 008.3C,00002191
2016-12-07 05:49:46 r, 18.13m,0000000005Hz,0000097920c,0000000.213s, 008.3C,00002191
2016-12-07 05:59:46 r, 18.32m,0000000004Hz,0000117051c,0000000.254s, 008.3C,00002191
2016-12-07 06:09:46 r, 18.39m,0000000003Hz,0000124810c,0000000.271s, 008.3C,00002191
2016-12-07 06:19:46 r, 18.43m,0000000003Hz,0000128988c,0000000.280s, 008.3C,00002191
2016-12-07 06:29:46 r, 18.41m,0000000004Hz,0000126895c,0000000.275s, 008.3C,00002191
2016-12-07 06:39:46 r, 18.19m,0000000004Hz,0000103567c,0000000.225s, 008.7C,00002191
2016-12-07 06:49:46 r, 18.25m,0000000005Hz,0000109644c,0000000.238s, 008.7C,00002191
2016-12-07 06:59:46 r, 17.79m,0000000006Hz,0000071987c,0000000.156s, 008.7C,00002191
2016-12-07 07:09:46 r, 16.84m,0000000016Hz,0000029928c,0000000.065s, 008.7C,00002191
2016-12-07 07:19:46 r, 15.45m,0000000055Hz,0000008307c,0000000.018s, 008.7C,00002191
2016-12-07 07:29:46 r, 13.82m,0000000251Hz,0000000000c,0000000.000s, 008.7C,00002191
2016-12-07 07:39:45 r, 12.09m,0000001233Hz,0000000000c,0000000.000s, 008.7C,00002191
2016-12-07 07:49:46 r, 10.33m,0000006262Hz,0000000000c,0000000.000s, 008.7C,00002191
2016-12-07 07:59:46 r, 08.85m,0000024324Hz,0000000000c,0000000.000s, 008.7C,00002191
2016-12-07 08:09:46 r, 07.79m,0000064689Hz,0000000000c,0000000.000s, 008.7C,00002191
2016-12-07 08:19:46 r, 07.01m,0000134104Hz,0000000000c,0000000.000s, 008.7C,00002191
2016-12-07 08:29:46 r, 06.42m,0000228086Hz,0000000000c,0000000.000s, 008.7C,00002191
2016-12-07 08:39:46 r, 05.82m,0000395491Hz,0000000000c,0000000.000s, 008.7C,00002191
2016-12-07 08:49:46 r, 00.00m,0000597821Hz,0000000000c,0000000.000s, 009.0C,00002191
2016-12-07 08:59:45 r, 00.00m,0000597720Hz,0000000000c,0000000.000s, 009.3C,00002191
2016-12-07 09:09:46 r, 00.00m,0000597735Hz,0000000000c,0000000.000s, 009.3C,00002191
2016-12-07 09:19:46 r, 00.00m,0000597709Hz,0000000000c,0000000.000s, 009.6C,00002191
2016-12-07 09:29:45 r, 00.00m,0000597591Hz,0000000000c,0000000.000s, 009.9C,00002191
2016-12-07 09:39:46 r, 00.00m,0000597578Hz,0000000000c,0000000.000s, 009.9C,00002191
2016-12-07 09:49:46 r, 00.00m,0000597436Hz,0000000000c,0000000.000s, 010.3C,00002191
2016-12-07 09:59:46 r, 00.00m,0000597579Hz,0000000000c,0000000.000s, 010.6C,00002191
2016-12-07 10:09:46 r, 00.00m,0000597552Hz,0000000000c,0000000.000s, 011.2C,00002191
2016-12-07 10:19:46 r, 00.00m,0000597565Hz,0000000000c,0000000.000s, 011.2C,00002191
2016-12-07 10:29:46 r, 00.00m,0000597445Hz,0000000000c,0000000.000s, 011.2C,00002191
2016-12-07 10:39:46 r, 00.00m,0000597467Hz,0000000000c,0000000.000s, 011.6C,00002191
2016-12-07 10:49:46 r, 00.00m,0000597295Hz,0000000000c,0000000.000s, 012.2C,00002191
2016-12-07 10:59:46 r, 00.00m,0000597408Hz,0000000000c,0000000.000s, 011.9C,00002191
2016-12-07 11:09:46 r, 00.00m,0000597381Hz,0000000000c,0000000.000s, 011.9C,00002191
2016-12-07 11:19:46 r, 00.00m,0000597462Hz,0000000000c,0000000.000s, 011.6C,00002191
2016-12-07 11:29:46 r, 00.00m,0000597446Hz,0000000000c,0000000.000s, 011.9C,00002191
2016-12-07 11:39:46 r, 00.00m,0000597391Hz,0000000000c,0000000.000s, 011.9C,00002191
2016-12-07 11:49:45 r, 00.00m,0000597377Hz,0000000000c,0000000.000s, 012.5C,00002191
2016-12-07 11:59:46 r, 00.00m,0000597370Hz,0000000000c,0000000.000s, 012.5C,00002191
2016-12-07 12:09:46 r, 00.00m,0000597321Hz,0000000000c,0000000.000s, 012.8C,00002191
2016-12-07 12:19:46 r, 00.00m,0000597341Hz,0000000000c,0000000.000s, 013.2C,00002191
2016-12-07 12:29:46 r, 00.00m,0000597233Hz,0000000000c,0000000.000s, 013.5C,00002191
2016-12-07 12:39:46 r, 00.00m,0000597255Hz,0000000000c,0000000.000s, 013.5C,00002191
2016-12-07 12:49:46 r, 00.00m,0000597260Hz,0000000000c,0000000.000s, 013.2C,00002191
2016-12-07 12:59:45 r, 00.00m,0000597273Hz,0000000000c,0000000.000s, 013.2C,00002191
2016-12-07 13:09:46 r, 00.00m,0000597300Hz,0000000000c,0000000.000s, 012.8C,00002191
2016-12-07 13:19:46 r, 00.00m,0000597372Hz,0000000000c,0000000.000s, 012.5C,00002191
2016-12-07 13:29:46 r, 00.00m,0000597333Hz,0000000000c,0000000.000s, 012.2C,00002191
2016-12-07 13:39:45 r, 00.00m,0000597329Hz,0000000000c,0000000.000s, 012.2C,00002191
2016-12-07 13:49:46 r, 00.00m,0000597487Hz,0000000000c,0000000.000s, 011.9C,00002191
2016-12-07 13:59:46 r, 00.00m,0000597408Hz,0000000000c,0000000.000s, 011.9C,00002191
2016-12-07 14:09:45 r, 00.00m,0000597455Hz,0000000000c,0000000.000s, 011.9C,00002191
2016-12-07 14:19:45 r, 00.00m,0000597377Hz,0000000000c,0000000.000s, 012.2C,00002191
2016-12-07 14:29:45 r, 00.00m,0000597322Hz,0000000000c,0000000.000s, 012.2C,00002191
2016-12-07 14:39:45 r, 00.00m,0000597309Hz,0000000000c,0000000.000s, 012.2C,00002191
2016-12-07 14:49:45 r, 00.00m,0000597362Hz,0000000000c,0000000.000s, 011.9C,00002191
2016-12-07 14:59:46 r, 00.00m,0000597363Hz,0000000000c,0000000.000s, 011.2C,00002191
2016-12-07 15:09:46 r, 00.00m,0000597487Hz,0000000000c,0000000.000s, 010.9C,00002191
2016-12-07 15:19:46 r, 00.00m,0000597433Hz,0000000000c,0000000.000s, 010.6C,00002191
2016-12-07 15:29:46 r, 00.00m,0000597536Hz,0000000000c,0000000.000s, 010.3C,00002191
2016-12-07 15:39:46 r, 00.00m,0000597595Hz,0000000000c,0000000.000s, 009.9C,00002191
2016-12-07 15:49:45 r, 00.00m,0000597619Hz,0000000000c,0000000.000s, 009.6C,00002191
2016-12-07 15:59:46 r, 00.00m,0000468044Hz,0000000000c,0000000.000s, 009.3C,00002191
2016-12-07 16:09:46 r, 06.07m,0000316267Hz,0000000000c,0000000.000s, 009.0C,00002191
2016-12-07 16:19:46 r, 06.75m,0000168619Hz,0000000000c,0000000.000s, 008.7C,00002191
2016-12-07 16:29:46 r, 07.53m,0000082533Hz,0000000000c,0000000.000s, 008.7C,00002191
2016-12-07 16:39:45 r, 08.53m,0000032810Hz,0000000000c,0000000.000s, 008.7C,00002191
2016-12-07 16:49:45 r, 10.03m,0000008202Hz,0000000000c,0000000.000s, 008.3C,00002191
2016-12-07 16:59:46 r, 11.74m,0000001711Hz,0000000000c,0000000.000s, 008.3C,00002191
2016-12-07 17:09:46 r, 13.69m,0000000284Hz,0000000000c,0000000.000s, 008.0C,00002191
2016-12-07 17:19:46 r, 15.27m,0000000066Hz,0000007035c,0000000.015s, 008.0C,00002191
2016-12-07 17:29:46 r, 16.48m,0000000021Hz,0000021389c,0000000.046s, 008.0C,00002191
2016-12-07 17:39:45 r, 17.09m,0000000012Hz,0000037845c,0000000.082s, 008.0C,00002191
2016-12-07 17:49:46 r, 17.34m,0000000010Hz,0000047438c,0000000.103s, 008.0C,00002191
2016-12-07 17:59:45 r, 17.34m,0000000010Hz,0000047197c,0000000.102s, 008.0C,00002191
2016-12-07 18:09:45 r, 17.38m,0000000010Hz,0000048939c,0000000.106s, 007.7C,00002191
2016-12-07 18:19:46 r, 17.38m,0000000009Hz,0000048916c,0000000.106s, 007.7C,00002191
2016-12-07 18:29:46 r, 17.43m,0000000009Hz,0000051663c,0000000.112s, 008.0C,00002191
2016-12-07 18:39:45 r, 17.48m,0000000008Hz,0000053832c,0000000.117s, 007.7C,00002191
2016-12-07 18:49:46 r, 17.51m,0000000008Hz,0000055678c,0000000.121s, 008.0C,00002191
2016-12-07 18:59:45 r, 17.56m,0000000008Hz,0000058259c,0000000.126s, 008.0C,00002191
2016-12-07 19:09:46 r, 17.56m,0000000007Hz,0000057679c,0000000.125s, 008.0C,00002191
2016-12-07 19:19:46 r, 17.76m,0000000007Hz,0000070000c,0000000.152s, 007.7C,00002191
2016-12-07 19:29:46 r, 17.59m,0000000008Hz,0000059485c,0000000.129s, 007.7C,00002191
2016-12-07 19:39:46 r, 17.77m,0000000007Hz,0000070636c,0000000.153s, 007.7C,00002191
2016-12-07 19:49:46 r, 17.59m,0000000008Hz,0000059534c,0000000.129s, 007.7C,00002191
2016-12-07 19:59:45 r, 17.60m,0000000008Hz,0000059949c,0000000.130s, 007.7C,00002191
2016-12-07 20:09:45 r, 17.63m,0000000007Hz,0000061809c,0000000.134s, 007.7C,00002191
2016-12-07 20:19:46 r, 17.64m,0000000008Hz,0000062315c,0000000.135s, 007.7C,00002191
2016-12-07 20:29:46 r, 17.71m,0000000007Hz,0000066794c,0000000.145s, 007.4C,00002191
2016-12-07 20:39:46 r, 17.81m,0000000006Hz,0000072953c,0000000.158s, 007.4C,00002191
2016-12-07 20:49:46 r, 17.66m,0000000007Hz,0000063885c,0000000.139s, 007.0C,00002191
2016-12-07 20:59:46 r, 17.90m,0000000006Hz,0000079625c,0000000.173s, 007.0C,00002191
2016-12-07 21:09:46 r, 17.87m,0000000006Hz,0000077437c,0000000.168s, 006.7C,00002191
2016-12-07 21:19:45 r, 17.88m,0000000006Hz,0000078093c,0000000.169s, 006.7C,00002191
2016-12-07 21:29:45 r, 17.90m,0000000006Hz,0000079418c,0000000.172s, 006.4C,00002191
2016-12-07 21:39:45 r, 17.77m,0000000006Hz,0000070299c,0000000.153s, 006.4C,00002191
2016-12-07 21:49:46 r, 17.76m,0000000007Hz,0000070065c,0000000.152s, 006.4C,00002191
2016-12-07 21:59:46 r, 17.76m,0000000007Hz,0000070032c,0000000.152s, 006.1C,00002191
2016-12-07 22:09:46 r, 17.78m,0000000007Hz,0000071137c,0000000.154s, 006.1C,00002191
2016-12-07 22:19:46 r, 17.82m,0000000006Hz,0000073920c,0000000.160s, 006.1C,00002191
2016-12-07 22:29:46 r, 17.90m,0000000006Hz,0000079580c,0000000.173s, 006.1C,00002191
2016-12-07 22:39:46 r, 17.96m,0000000005Hz,0000083625c,0000000.181s, 006.1C,00002191
2016-12-07 22:49:46 r, 17.84m,0000000006Hz,0000074966c,0000000.163s, 006.1C,00002191
2016-12-07 22:59:46 r, 17.84m,0000000006Hz,0000074883c,0000000.163s, 006.1C,00002191
2016-12-07 23:09:46 r, 17.88m,0000000006Hz,0000077899c,0000000.169s, 006.1C,00002191
2016-12-07 23:19:45 r, 17.93m,0000000006Hz,0000081583c,0000000.177s, 006.1C,00002191
2016-12-07 23:29:46 r, 17.98m,0000000005Hz,0000085347c,0000000.185s, 006.1C,00002191
2016-12-07 23:39:46 r, 18.07m,0000000005Hz,0000092317c,0000000.200s, 006.1C,00002191
2016-12-07 23:49:45 r, 18.09m,0000000005Hz,0000094229c,0000000.204s, 006.1C,00002191
2016-12-07 23:59:46 r, 17.93m,0000000006Hz,0000081499c,0000000.177s, 006.1C,00002191
